SIA566 WADD-WMKK

Flight info

Callsign SIA566
Flight time N/A
Altitude 38000
Route BORGI DCT UDONO M635 JUNHA DCT SJ G579 VJB A457 GUPTA GUPTA3K
Aircraft B77W/H-SDE1E2E3FGHIJ2J3J4J5M1RWXY/LB1D1

Departure

Time 2026-05-05 19:15
Airport Denpasar I Gusti Ngurah Rai International Airport (WADD)

Arrival

Time N/A
Airport Kuala Lumpur International Airport (WMKK)
Time Latitude Longitude Altitude Speed Heading
2026-05-05 18:27 -8.74557 115.16604 30 ft 0 kts 358°
2026-05-05 19:05 -8.74556 115.16604 30 ft 0 kts 358°
2026-05-05 19:05 -8.74569 115.16605 30 ft 4 kts 358°
2026-05-05 19:05 -8.74597 115.16605 29 ft 4 kts 360°
2026-05-05 19:05 -8.74626 115.16605 29 ft 4 kts
2026-05-05 19:06 -8.74654 115.16602 28 ft 2 kts 352°
2026-05-05 19:06 -8.74671 115.16611 27 ft 2 kts 314°
2026-05-05 19:06 -8.74679 115.16626 27 ft 2 kts 277°
2026-05-05 19:06 -8.74680 115.16637 27 ft 0 kts 271°
2026-05-05 19:11 -8.74679 115.16615 27 ft 8 kts 271°
2026-05-05 19:11 -8.74681 115.16527 27 ft 16 kts 267°
2026-05-05 19:12 -8.74686 115.16424 27 ft 12 kts 267°
2026-05-05 19:12 -8.74691 115.16338 27 ft 11 kts 267°
2026-05-05 19:12 -8.74694 115.16241 25 ft 16 kts 268°
2026-05-05 19:12 -8.74700 115.16105 23 ft 21 kts 267°
2026-05-05 19:13 -8.74709 115.15935 21 ft 26 kts 267°
2026-05-05 19:13 -8.74717 115.15736 18 ft 30 kts 267°
2026-05-05 19:13 -8.74723 115.15548 18 ft 21 kts 268°
2026-05-05 19:13 -8.74729 115.15437 18 ft 9 kts 253°
2026-05-05 19:14 -8.74764 115.15397 18 ft 8 kts 205°
2026-05-05 19:14 -8.74834 115.15391 18 ft 10 kts 175°
2026-05-05 19:14 -8.74886 115.15420 18 ft 7 kts 114°
2026-05-05 19:14 -8.74890 115.15462 19 ft 4 kts 89°
2026-05-05 19:15 -8.74887 115.15599 20 ft 51 kts 88°
2026-05-05 19:15 -8.74860 115.16240 24 ft 130 kts 88°
2026-05-05 19:15 -8.74812 115.17356 245 ft 176 kts 89°
2026-05-05 19:15 -8.74742 115.18634 1040 ft 188 kts 88°
2026-05-05 19:16 -8.74679 115.19877 2059 ft 185 kts 88°
2026-05-05 19:16 -8.74619 115.21251 2579 ft 205 kts 88°
2026-05-05 19:16 -8.74553 115.22722 3273 ft 218 kts 88°
2026-05-05 19:16 -8.74490 115.24281 4008 ft 230 kts 88°
2026-05-05 19:17 -8.74425 115.25954 4653 ft 248 kts 88°
2026-05-05 19:17 -8.74381 115.27745 5374 ft 263 kts 88°
2026-05-05 19:17 -8.74320 115.29582 6326 ft 267 kts 88°
2026-05-05 19:17 -8.74248 115.31458 7304 ft 270 kts 88°
2026-05-05 19:18 -8.74171 115.33360 8118 ft 277 kts 88°
2026-05-05 19:18 -8.74091 115.35319 8774 ft 283 kts 88°
2026-05-05 19:18 -8.74008 115.37314 8950 ft 285 kts 88°
2026-05-05 19:18 -8.73924 115.39340 8974 ft 284 kts 88°
2026-05-05 19:19 -8.73840 115.41367 8975 ft 283 kts 88°
2026-05-05 19:19 -8.73759 115.43343 8974 ft 282 kts 88°
2026-05-05 19:19 -8.73678 115.45328 8968 ft 283 kts 88°
2026-05-05 19:19 -8.73597 115.47298 8970 ft 282 kts 88°
2026-05-05 19:20 -8.73499 115.49312 8968 ft 283 kts 83°
2026-05-05 19:20 -8.72775 115.51351 8953 ft 282 kts 56°
2026-05-05 19:20 -8.71287 115.53123 8965 ft 286 kts 47°
2026-05-05 19:20 -8.69662 115.54778 8964 ft 285 kts 46°
2026-05-05 19:21 -8.67995 115.56445 8959 ft 286 kts 46°
2026-05-05 19:21 -8.66305 115.58139 8958 ft 285 kts 46°
2026-05-05 19:21 -8.64652 115.59797 8957 ft 284 kts 46°
2026-05-05 19:21 -8.62994 115.61459 8955 ft 286 kts 46°
2026-05-05 19:22 -8.61321 115.63136 8950 ft 284 kts 46°
2026-05-05 19:22 -8.59672 115.64790 8950 ft 285 kts 46°
2026-05-05 19:22 -8.58003 115.66464 8953 ft 285 kts 46°
2026-05-05 19:22 -8.56411 115.68043 8942 ft 285 kts 42°
2026-05-05 19:23 -8.54419 115.69096 8938 ft 289 kts 14°
2026-05-05 19:23 -8.52107 115.69365 9579 ft 303 kts
2026-05-05 19:23 -8.49996 115.69264 10645 ft 303 kts 355°
2026-05-05 19:23 -8.47857 115.68874 11197 ft 320 kts 346°
2026-05-05 19:24 -8.45680 115.68130 11722 ft 339 kts 337°
2026-05-05 19:24 -8.43546 115.66995 12252 ft 356 kts 328°
2026-05-05 19:24 -8.41547 115.65458 12771 ft 372 kts 317°
2026-05-05 19:24 -8.39740 115.63477 13280 ft 389 kts 307°
2026-05-05 19:25 -8.38298 115.61151 13815 ft 402 kts 296°
2026-05-05 19:25 -8.37276 115.58471 14377 ft 414 kts 284°
2026-05-05 19:25 -8.36805 115.55578 15131 ft 420 kts 273°
2026-05-05 19:25 -8.36908 115.52662 16000 ft 421 kts 262°
2026-05-05 19:26 -8.37523 115.49786 16819 ft 423 kts 252°
2026-05-05 19:26 -8.38633 115.47047 17552 ft 427 kts 242°
2026-05-05 19:26 -8.40196 115.44489 18225 ft 432 kts 237°
2026-05-05 19:26 -8.41715 115.41833 18845 ft 438 kts 245°
2026-05-05 19:27 -8.42844 115.38975 19440 ft 444 kts 252°
2026-05-05 19:27 -8.43691 115.35979 20043 ft 448 kts 257°
2026-05-05 19:27 -8.44312 115.32908 20629 ft 453 kts 261°
2026-05-05 19:27 -8.44792 115.29748 21216 ft 457 kts 263°
2026-05-05 19:28 -8.45158 115.26572 21787 ft 461 kts 265°
2026-05-05 19:28 -8.45458 115.23316 22346 ft 465 kts 266°
2026-05-05 19:28 -8.45701 115.20061 22959 ft 467 kts 267°
2026-05-05 19:28 -8.45903 115.16798 23636 ft 468 kts 267°